[[{"header":{"parameterUnit":"m.s-1","parameterCategory":1,"la1":30.2991,"la2":30.254,"lo1":-89.0895,"lo2":-89.0444,"dy":0.0017,"dx":0.0017,"nx":28,"ny":28,"refTime":"2025-06-19T09:00:00:Z","depth":0,"parameterNumber":2,"parameterNumberName":"U-component_of_WINDS"},"data":[0,0,0,0,0,0,0,0,0,0,0,0,0,0,0,0,0,0,0,0,0,0,0,0,0,0,0,0,0,0,0,0,0,0,0,0,0,0,0,0,0,0,0,0,0,0,0,0,0,0,0,0,0,0,0,0,0,0,2.1812,2.1814,0,2.1956,2.1958,2.196,2.1981,2.1979,2.1978,2.1977,2.2127,2.2132,2.2137,0,0,0,0,0,0,0,0,0,0,0,0,0,2.1558,2.1562,2.1812,2.1814,2.1816,2.1956,2.1958,2.196,2.1981,2.1979,2.1978,2.1976,2.2125,2.2131,2.2138,0,0,0,0,0,0,0,0,0,0,0,0,0,2.1682,2.1564,2.1812,2.1843,2.1847,2.1956,2.1958,2.196,2.1981,2.1979,2.1977,2.1975,2.2123,2.2131,2.2139,2.2227,0,0,2.2163,2.2166,0,0,0,0,0,0,0,0,2.1675,2.1691,2.1837,2.1841,2.1846,2.1948,2.1923,2.205,2.1982,2.193,2.1977,2.1974,2.2069,2.2082,2.2113,2.2234,2.224,2.2163,2.2168,2.2171,2.2174,0,0,0,0,0,0,0,2.1666,2.1685,2.1869,2.1839,2.1844,2.1851,2.1866,2.1948,2.2009,2.1935,2.1937,2.1953,2.2072,2.2105,2.2117,2.2243,2.2163,2.217,2.2175,2.2178,2.2443,2.2445,0,0,0,0,0,0,2.1651,2.1678,2.1865,2.1874,2.1754,2.1857,2.1874,2.1918,2.2008,2.202,2.1955,2.1954,2.2093,2.2107,2.2122,2.2231,2.2171,2.2179,2.2183,2.244,2.2443,2.2446,0,0,0,0,0,0,2.1646,2.1668,2.1859,2.1776,2.1801,2.1863,2.1912,2.1921,2.1955,2.2024,2.2035,2.1978,2.2092,2.2111,2.22,2.2236,2.2182,2.2189,2.2438,2.2441,2.2445,2.2449,0,0,0,0,0,0,2.1639,2.1666,2.1699,2.1777,2.1805,2.1934,2.1914,2.1926,2.1968,2.1968,2.2048,2.206,2.2092,2.2188,2.2208,2.2246,2.2196,2.2435,2.2439,2.2443,2.2446,2.2452,2.2457,0,0,0,0,0,2.1629,2.1696,2.1701,2.1723,2.1848,2.1936,2.1952,2.1987,2.1971,2.2006,2.205,2.2057,2.2229,2.2197,2.222,2.2261,2.2433,2.2438,2.2443,2.2443,2.2451,2.2457,0,0,0,0,0,0,2.1622,2.1706,2.1713,2.1806,2.1864,2.1939,2.1984,2.1994,2.2058,2.2056,2.2097,2.2115,2.2202,2.2241,2.2204,2.2351,2.233,2.234,2.2322,2.233,2.2336,2.2324,2.2202,0,0,0,0,0,2.1631,2.1694,2.1765,2.184,2.1868,2.1921,2.1961,2.1983,2.2044,2.2069,2.2119,2.2179,2.2247,2.2291,2.2357,2.2452,2.2469,2.2491,2.2497,2.2501,2.2509,2.2561,2.2572,2.2463,2.2463,2.2463,0,0,2.165,2.1704,2.1742,2.184,2.1887,2.1952,2.1941,2.2011,2.206,2.208,2.2166,2.2206,2.2276,2.2368,2.2411,2.2402,2.2543,2.2508,2.2511,2.2516,2.2568,2.2578,2.2587,2.2466,2.2466,2.2465,0,0,2.1718,2.1766,2.1833,2.1881,2.1952,2.1986,2.2002,2.2077,2.2103,2.2191,2.2207,2.2266,2.2382,2.2431,2.2471,2.2558,2.2567,2.2579,2.2609,2.2659,2.2668,2.2675,2.2706,2.2716,2.2586,2.2586,2.2586,0,2.1734,2.1832,2.1867,2.1936,2.1978,2.1999,2.2067,2.2112,2.2201,2.2231,2.222,2.2365,2.2414,2.2517,2.2538,2.257,2.259,2.2569,2.2663,2.2672,2.2679,2.2709,2.272,2.2587,2.2587,2.2587,2.2587,0,2.1847,2.1914,2.1961,2.2045,2.2093,2.2162,2.2208,2.2253,2.2271,2.2307,2.2396,2.2455,2.2533,2.2559,2.2578,2.2666,2.2658,2.2655,2.2634,2.269,2.2718,2.273,2.2588,2.2588,2.2588,2.2588,0,0,2.1914,2.2017,2.2033,2.2071,2.2151,2.2205,2.2274,2.235,2.2387,2.2448,2.2507,2.2605,2.2602,2.2648,2.2672,2.2717,2.2781,2.2708,2.271,2.2719,2.288,2.2881,2.2893,2.2787,2.279,2.2792,2.2874,0,2.1991,2.2114,2.2148,2.2253,2.2316,2.2336,2.2397,2.2452,2.2488,2.2547,2.2587,2.2655,2.2647,2.2674,2.2719,2.2763,2.2813,2.2758,2.2843,2.2846,2.2824,2.2908,2.291,2.2984,2.2885,2.2887,2.2889,0,2.2097,2.2158,2.2269,2.234,2.2368,2.2422,2.2493,2.255,2.2614,2.2637,2.2687,2.2707,2.2781,2.2758,2.286,2.2821,2.2859,2.2885,2.2889,2.2898,2.287,2.2918,2.3009,2.302,2.2906,2.2905,2.2904,0,2.2133,2.2244,2.2325,2.2357,2.2443,2.248,2.2518,2.258,2.2623,2.2686,2.2714,2.2785,2.2824,2.2879,2.2918,2.2897,2.3017,2.2997,2.3038,2.3037,2.3062,2.3059,2.3159,2.3087,2.3087,2.3087,2.3086,0,2.2215,2.2281,2.2342,2.2391,2.2467,2.2506,2.258,2.2618,2.2673,2.2731,2.2754,2.2807,2.2856,2.2917,2.2948,2.3028,2.3046,2.3066,2.3073,2.3064,2.3061,2.3088,2.3083,2.309,2.3089,2.3088,2.3088,0,2.2268,2.2311,2.24,2.2473,2.2494,2.2546,2.2609,2.2658,2.2694,2.2767,2.2786,2.2844,2.2916,2.2961,2.3053,2.3074,2.3161,2.3168,2.3139,2.3142,2.3181,2.3176,2.33,2.3318,2.3235,2.3236,2.3237,0,2.2316,2.2368,2.2447,2.2486,2.2524,2.2588,2.2632,2.2672,2.2717,2.2794,2.2834,2.2907,2.2968,2.3083,2.3133,2.3204,2.3211,2.325,2.3222,2.321,2.321,2.3206,2.3211,2.3254,2.3255,2.3255,2.3256,0,2.2398,2.2417,2.2478,2.2548,2.2599,2.2656,2.2712,2.2744,2.2795,2.2844,2.2917,2.2964,2.3058,2.3131,2.3205,2.3245,2.3259,2.3264,2.3277,2.3267,2.3248,2.3258,2.3151,2.3261,2.326,2.326,2.326,2.3259,2.245,2.2496,2.2559,2.2627,2.2673,2.2726,2.2775,2.2817,2.2879,2.2958,2.2978,2.3055,2.3118,2.322,2.3261,2.3322,2.3317,2.3336,2.3341,2.3345,2.3345,2.3239,2.3336,2.3336,2.3336,2.3336,2.3336,0,2.2531,2.2572,2.2635,2.2713,2.2766,2.2774,2.2837,2.2882,2.2949,2.3006,2.3065,2.3149,2.322,2.3276,2.3348,2.3387,2.3395,2.3404,2.3401,2.341,2.3346,2.3327,2.3396,2.3396,2.3396,2.3396,2.3396,2.3396,2.258,2.2659,2.2685,2.2788,2.2829,2.2903,2.2939,2.2987,2.3033,2.3126,2.3184,2.322,2.3277,2.3354,2.3419,2.3433,2.3459,2.3467,2.3482,2.3421,2.3415,2.3408,2.339,2.3472,2.3472,2.3541,2.3542,2.3542]},{"header":{"parameterUnit":"m.s-1","parameterCategory":1,"la1":30.2991,"la2":30.254,"lo1":-89.0895,"lo2":-89.0444,"dy":0.0017,"dx":0.0017,"nx":28,"ny":28,"refTime":"2025-06-19T09:00:00:Z","depth":0,"parameterNumber":3,"parameterNumberName":"V-component_of_WINDS"},"data":[0,0,0,0,0,0,0,0,0,0,0,0,0,0,0,0,0,0,0,0,0,0,0,0,0,0,0,0,0,0,0,0,0,0,0,0,0,0,0,0,0,0,0,0,0,0,0,0,0,0,0,0,0,0,0,0,0,0,4.3538,4.3538,0,4.3544,4.3544,4.3544,4.3505,4.3504,4.3503,4.3502,4.3507,4.3508,4.351,0,0,0,0,0,0,0,0,0,0,0,0,0,4.349,4.3491,4.3538,4.3538,4.3538,4.3544,4.3544,4.3544,4.3506,4.3504,4.3503,4.3502,4.3507,4.3508,4.351,0,0,0,0,0,0,0,0,0,0,0,0,0,4.3505,4.3491,4.3538,4.3519,4.3518,4.3544,4.3544,4.3545,4.3506,4.3504,4.3503,4.3501,4.3506,4.3508,4.351,4.3554,0,0,4.3515,4.3516,0,0,0,0,0,0,0,0,4.3504,4.3507,4.3522,4.3521,4.3519,4.3522,4.3529,4.3548,4.3506,4.351,4.3502,4.35,4.3514,4.3515,4.3519,4.3554,4.3554,4.3515,4.3516,4.3517,4.3518,0,0,0,0,0,0,0,4.3503,4.3506,4.354,4.3522,4.352,4.351,4.351,4.3533,4.3521,4.351,4.3507,4.3508,4.3512,4.3518,4.3519,4.3554,4.3515,4.3517,4.3518,4.3519,4.3624,4.3626,0,0,0,0,0,0,4.3505,4.3505,4.354,4.354,4.3507,4.3512,4.3513,4.3523,4.3521,4.3519,4.351,4.3507,4.3516,4.3517,4.3519,4.357,4.3517,4.3519,4.352,4.3623,4.3625,4.3627,0,0,0,0,0,0,4.3504,4.3508,4.354,4.3522,4.3525,4.3515,4.3527,4.3524,4.3529,4.3521,4.3518,4.3518,4.3514,4.3517,4.3545,4.3569,4.352,4.3521,4.3621,4.3623,4.3626,4.3671,0,0,0,0,0,0,4.3503,4.3508,4.3525,4.3523,4.3527,4.3567,4.3528,4.3525,4.3533,4.3528,4.3527,4.3526,4.3513,4.3543,4.3547,4.3571,4.3523,4.3618,4.3622,4.3625,4.3668,4.3675,4.3682,0,0,0,0,0,4.3501,4.3538,4.3526,4.3531,4.3548,4.3568,4.357,4.3555,4.3535,4.3551,4.3546,4.3526,4.3566,4.3546,4.3551,4.3575,4.3617,4.3621,4.3625,4.3665,4.3674,4.3682,0,0,0,0,0,0,4.3542,4.3537,4.3524,4.3561,4.3566,4.3561,4.3582,4.3566,4.3576,4.3571,4.3552,4.3552,4.3584,4.3582,4.356,4.3617,4.3588,4.3593,4.3617,4.3625,4.3632,4.3631,4.3524,0,0,0,0,0,4.3556,4.3573,4.3567,4.3601,4.3604,4.3593,4.3601,4.3589,4.3593,4.3594,4.359,4.3594,4.3607,4.3616,4.3628,4.3668,4.3666,4.3687,4.3694,4.37,4.3704,4.3723,4.3732,4.364,4.364,4.364,0,0,4.3584,4.3583,4.3595,4.3609,4.3611,4.3628,4.3594,4.3615,4.3627,4.3597,4.3623,4.3621,4.3624,4.3658,4.3672,4.3657,4.3729,4.3705,4.3709,4.371,4.3728,4.3737,4.3745,4.3642,4.3642,4.3641,0,0,4.3643,4.3645,4.3672,4.3675,4.3678,4.3671,4.3678,4.3676,4.3673,4.37,4.3677,4.3692,4.3716,4.3718,4.3723,4.3783,4.3765,4.3788,4.3824,4.3843,4.3851,4.3857,4.3877,4.3885,4.3792,4.3792,4.3792,0,4.3677,4.3703,4.3688,4.371,4.3716,4.3691,4.3717,4.3721,4.3728,4.3732,4.3716,4.3745,4.3745,4.3778,4.3793,4.3798,4.3804,4.3787,4.3851,4.3857,4.3863,4.3882,4.389,4.3795,4.3795,4.3794,4.3794,0,4.3744,4.3763,4.3784,4.3792,4.3801,4.3825,4.3813,4.3824,4.3812,4.3806,4.3833,4.3833,4.3843,4.3851,4.3839,4.3883,4.3873,4.3854,4.3824,4.3875,4.3892,4.39,4.3799,4.3798,4.3797,4.3796,0,0,4.3829,4.3828,4.3836,4.3839,4.3841,4.3855,4.3878,4.3889,4.3898,4.3904,4.3922,4.3943,4.3925,4.393,4.3919,4.3936,4.3983,4.3915,4.3914,4.3926,4.4029,4.4043,4.4052,4.3971,4.3972,4.3974,4.4029,0,4.3886,4.3925,4.3912,4.3952,4.3968,4.3944,4.3964,4.3967,4.3962,4.3975,4.3969,4.3984,4.396,4.3963,4.3979,4.3974,4.4003,4.397,4.3987,4.3987,4.3985,4.4061,4.4075,4.4127,4.4036,4.4037,4.4038,0,4.3957,4.3966,4.4008,4.4006,4.4013,4.4031,4.404,4.4053,4.4055,4.4051,4.4057,4.4041,4.4063,4.4034,4.4063,4.4041,4.4047,4.4046,4.4047,4.4047,4.4015,4.4062,4.4144,4.4151,4.4049,4.4048,4.4047,0,4.4013,4.4036,4.4063,4.4066,4.4066,4.4079,4.408,4.4081,4.4088,4.4096,4.41,4.4111,4.4116,4.4124,4.4112,4.4092,4.4142,4.4113,4.4138,4.4138,4.4148,4.4148,4.4231,4.4155,4.4155,4.4155,4.4155,0,4.4077,4.4103,4.4088,4.4105,4.4133,4.4118,4.4146,4.4144,4.4145,4.416,4.414,4.4155,4.4139,4.4152,4.4142,4.4167,4.417,4.4166,4.4163,4.4167,4.4167,4.417,4.4165,4.4157,4.4156,4.4156,4.4156,0,4.4143,4.4135,4.4163,4.416,4.416,4.4181,4.4178,4.4193,4.4188,4.4207,4.4211,4.4202,4.4216,4.4205,4.4219,4.4212,4.4245,4.4238,4.4244,4.4241,4.4267,4.4264,4.4354,4.4365,4.4283,4.4284,4.4284,0,4.4184,4.4203,4.4203,4.4212,4.4214,4.4229,4.4237,4.4223,4.4231,4.4236,4.425,4.4263,4.4272,4.4296,4.429,4.4301,4.4292,4.4323,4.4294,4.4297,4.4291,4.429,4.4291,4.4329,4.433,4.433,4.4331,0,4.4257,4.4252,4.4263,4.4274,4.4284,4.4291,4.4297,4.4306,4.4291,4.4302,4.4317,4.4324,4.4338,4.4351,4.4359,4.4359,4.4342,4.4341,4.4347,4.435,4.4353,4.4351,4.4259,4.4338,4.4338,4.4337,4.4337,4.4336,4.431,4.4326,4.4329,4.4342,4.4346,4.4352,4.4365,4.4361,4.4374,4.4384,4.4376,4.4393,4.4395,4.4405,4.4406,4.4419,4.4406,4.4416,4.4418,4.442,4.4423,4.4352,4.4421,4.4421,4.442,4.442,4.442,0,4.4381,4.4381,4.4394,4.4403,4.4414,4.4399,4.4404,4.4414,4.443,4.4433,4.4443,4.446,4.4472,4.4467,4.4478,4.4489,4.4482,4.4492,4.449,4.449,4.4435,4.4428,4.4498,4.4498,4.4498,4.4498,4.4498,4.4498,4.4419,4.4444,4.4439,4.4466,4.4466,4.4483,4.4488,4.4493,4.4496,4.4515,4.4525,4.4523,4.4523,4.4533,4.4543,4.4542,4.4546,4.4559,4.4554,4.4502,4.4494,4.4487,4.448,4.456,4.456,4.4609,4.4609,4.461]}]]